Погода в Великодворье

Россия / Владимирская область     55°13′37″N   40°38′37″E
темп.,
°C
ветер,
м/с
пор.,
м/с
влажн.,
%
обл.,
%
осадки,
мм/ч
давл.,
гПа
погр.,
м
24 июля, сб
сб2400:00+12зсз27915 0.0 1008133
03:00+13зсз2582100 0.0 1009148
06:00+14сз267899 0.0 1010249
09:00+17ссз3556100 0.0 1011769
12:00+18с455468 0.6 10131241
15:00+20зсз3445100 0.7 10131637
18:00+18св2455100 0.0 1015381
21:00+14ссз016639 0.0 101711
25 июля, вс
вс2500:00+14зсз116596 0.0 101817
03:00+14ссз1161100 0.0 101910
06:00+14ссз116255 0.0 102124
09:00+21юз113811 0.0 1021843
12:00+23зюз222884 0.0 10212834
15:00+23юз332867 0.0 10212760
18:00+20зюз3645100 0.0 1022186
21:00+15зсз115920 0.0 102312
26 июля, пн
пн2600:00+13юз11665 0.0 102410
03:00+13зюз116641 0.0 102410
06:00+15юз226180 0.0 102557
09:00+20зюз234632 0.0 1025444
12:00+25зсз333199 0.0 10242790
15:00+24зсз333296 0.0 10242147
18:00+24с123890 0.0 10231043
21:00+17сз11625 0.0 102311
27 июля, вт
вт2700:00+15з226233 0.0 102412
03:00+17з245984 0.0 102485
06:00+16зсз24665 0.0 1024112
09:00+23з23458 0.0 1023569
12:00+27з343739 0.0 10222395
15:00+26з554082 0.0 10211510
18:00+25зсз364646 0.0 1021592
21:00+18з22692 0.0 102137
28 июля, ср
ср2800:00+17з237616 0.1 102146
03:00+15з23895 0.1 102051
06:00+17з12814 0.0 102068
09:00+24зюз23525 0.0 1019541
12:00+28з343636 0.0 10172408
15:00+28зюз343320 0.0 10162250
18:00+28юз363638 0.0 1014730
21:00+22ююз2449100 0.0 101375